This is the latest recevied weather packets stored in our database for station/object NY5V. If no packets are shown the sender has not sent any weather packets the latest 10 day(s).
| Time | Temp. | Humidity | Pressure | Rain* | Wind** | Luminosity | Snow |
|---|---|---|---|---|---|---|---|
| 1777994413 | 22.78° C | 86% | 1007.5 hPa | 0 mm | - | 69 W/m² | - |
| 1777993811 | 22.78° C | 86% | 1007.6 hPa | 0 mm | - | 56 W/m² | - |
| 1777993210 | 22.22° C | 86% | 1007.4 hPa | 0 mm | - | 84 W/m² | - |
| 1777992604 | 22.22° C | 86% | 1007.2 hPa | 0 mm | - | 76 W/m² | - |
| 1777992005 | 22.22° C | 86% | 1007.2 hPa | 0 mm | - | 100 W/m² | - |
| 1777991405 | 22.22° C | 85% | 1007.5 hPa | 0 mm | - | 61 W/m² | - |
| 1777990805 | 22.22° C | 86% | 1007.6 hPa | 0 mm | - | 86 W/m² | - |
| 1777989604 | 21.67° C | 89% | 1007.6 hPa | 0 mm | - | 32 W/m² | - |
| 1777989002 | 21.11° C | 90% | 1007.5 hPa | 0 mm | - | 29 W/m² | - |
| 1777988401 | 21.11° C | 92% | 1007.5 hPa | 0 mm | - | 26 W/m² | - |
| 1777987799 | 20.56° C | 93% | 1007.3 hPa | 0 mm | - | 36 W/m² | - |
| 1777987194 | 20.56° C | 94% | 1007.1 hPa | 0 mm | - | 19 W/m² | - |
| 1777986595 | 20.56° C | 93% | 1007.1 hPa | 0 mm | - | 15 W/m² | - |
| 1777985990 | 20.56° C | 93% | 1007.3 hPa | 0 mm | - | 15 W/m² | - |
| 1777985389 | 20.56° C | 92% | 1007.4 hPa | 0 mm | - | 13 W/m² | - |
| 1777984787 | 21.11° C | 91% | 1007 hPa | 0 mm | - | 8 W/m² | - |
| 1777984186 | 21.11° C | 90% | 1007.2 hPa | 0 mm | - | 5 W/m² | - |
| 1777983586 | 21.11° C | 90% | 1006.8 hPa | 0 mm | - | 5 W/m² | - |
| 1777982985 | 21.11° C | 90% | 1006.8 hPa | 0 mm | - | 3 W/m² | - |
| 1777982380 | 21.11° C | 90% | 1006.6 hPa | 0 mm | - | 2 W/m² | - |
| 1777981775 | 20.56° C | 90% | 1006.6 hPa | 0 mm | - | 1 W/m² | - |
| 1777981174 | 20.56° C | 90% | 1006.7 hPa | 0 mm | - | 1 W/m² | - |
| 1777980571 | 20.56° C | 90% | 1006.7 hPa | 0 mm | - | 0 W/m² | - |
| 1777979971 | 20.56° C | 90% | 1006.7 hPa | 0 mm | - | 0 W/m² | - |
| 1777979368 | 20.56° C | 90% | 1006.8 hPa | 0 mm | - | 0 W/m² | - |
* Rain latest hour (hover to see other rain measurements)
** Current wind speed in m/s (hover to see current wind gust speed)